This demonstration page uses our WeatherBlox Daily Observations layout. Learn more.

Left ArrowRight Arrow

44.8408, -93.29828

Hourly Observations for February 1, 2019

Temp ( °F °C ) Dew Point ( °F °C ) Humidity (%) Winds ( mph kmh ) Pressure ( in mb ) Visibility ( mi km ) Precip ( " mm )
12:53 am 00:53 Cloudy -3 -19.4 -8 -22.2 79 79 SE 8 13 30.28 1025 10 16 0.00 0.00
1:53 am 01:53 Cloudy with Light Snow -2 -18.9 -7 -21.7 79 79 SE 7 11 30.27 1025 9 14 0.00 0.03
2:53 am 02:53 Cloudy -1 -18.3 -7 -21.7 75 75 ESE 7 11 30.27 1025 10 16 0.00 0.03
3:53 am 03:53 Cloudy -1 -18.3 -6 -21.1 79 79 SSE 7 11 30.26 1025 10 16 0.00 0.00
4:53 am 04:53 Cloudy 0 -17.8 -5 -20.6 79 79 SE 7 11 30.26 1025 10 16 0.00 0.00
5:53 am 05:53 Cloudy 1 -17.2 -4 -20 79 79 SE 6 9 30.26 1025 10 16 0.00 0.00
6:53 am 06:53 Cloudy 2 -16.7 -3 -19.4 80 80 SE 6 9 30.26 1025 10 16 0.00 0.00
7:32 am 07:32 Cloudy 3 -16.1 -2 -18.9 79 79 SSE 6 9 30.30 1026 10 16 0.00 0.00
7:53 am 07:53 Cloudy 4 -15.6 -1 -18.3 80 80 SSE 8 13 30.26 1025 10 16 0.00 0.00
8:53 am 08:53 Cloudy 4 -15.6 -1 -18.3 80 80 SSE 9 15 30.26 1025 10 16 0.00 0.00
9:53 am 09:53 Cloudy 6 -14.4 0 -17.8 76 76 SSE 8 13 30.27 1025 10 16 0.00 0.00
10:53 am 10:53 Cloudy 8 -13.3 1 -17.2 73 73 S 10 17 30.26 1025 10 16 0.00 0.00
11:53 am 11:53 Cloudy 10 -12.2 3 -16.1 73 73 SSE 12 19 30.23 1024 10 16 0.00 0.00
12:53 pm 12:53 Mostly Cloudy 13 -10.6 5 -15 70 70 SSE 13 20 30.20 1023 10 16 0.00 0.00
1:53 pm 13:53 Mostly Cloudy 15 -9.4 6 -14.4 67 67 SSE 15 24 30.16 1021 10 16 0.00 0.00
2:05 pm 14:05 Mostly Cloudy 15 -9.4 7 -13.9 70 70 SSE 10 17 30.17 1022 10 16 0.00 0.00
2:19 pm 14:19 Mostly Cloudy 15 -9.4 7 -13.9 70 70 SSE 14 22 30.16 1021 10 16 0.00 0.00
2:53 pm 14:53 Mostly Cloudy 16 -8.9 8 -13.3 71 71 SSE 12 19 30.14 1021 10 16 0.00 0.00
3:53 pm 15:53 Mostly Cloudy 17 -8.3 9 -12.8 70 70 S 16 26 30.14 1021 10 16 0.00 0.00
4:53 pm 16:53 Partly Cloudy 15 -9.4 9 -12.8 77 77 SSE 15 24 30.11 1020 10 16 0.00 0.00
5:53 pm 17:53 Partly Cloudy 14 -10 7 -13.9 73 73 S 13 20 30.10 1019 10 16 0.00 0.00
6:53 pm 18:53 Partly Cloudy 13 -10.6 6 -14.4 74 74 SSE 12 19 30.08 1019 10 16 0.00 0.00
7:53 pm 19:53 Partly Cloudy 13 -10.6 6 -14.4 74 74 SSE 12 19 30.06 1018 10 16 0.00 0.00
8:53 pm 20:53 Partly Cloudy 12 -11.1 6 -14.4 77 77 SSE 9 15 30.06 1018 10 16 0.00 0.00
9:53 pm 21:53 Partly Cloudy 12 -11.1 6 -14.4 77 77 SSE 8 13 30.03 1017 10 16 0.00 0.00
10:53 pm 22:53 Partly Cloudy 12 -11.1 7 -13.9 80 80 SSE 7 11 30.00 1016 9 14 0.00 0.00
11:53 pm 23:53 Partly Cloudy 13 -10.6 8 -13.3 81 81 SSE 7 11 29.98 1015 9 14 0.00 0.00

Powered by AerisWeather